Location: Newark
(53.3503°N, 9.6158°W)
Time: 06:05:16
(UTC+00:00)

Envisat - Pass Details

Date: 28 October 2019
Orbit: 764 x 766 km, 98.1° (Epoch: 18 November)

Event Time Altitude Azimuth Distance (km) Brightness Sun altitude
Rises 06:14:14 0° 26° (NNE) 3,246 6.5 -11.6°
Reaches altitude 10° 06:17:25 10° 47° (NE) 2,313 6.1 -11.1°
Maximum altitude 06:20:37 17° 86° (E) 1,891 6.3 -10.7°
Drops below altitude 10° 06:23:48 10° 125° (SE) 2,301 6.6 -10.2°
Sets 06:26:57 0° 146° (SSE) 3,222 6.9 -9.7°
